#timestamp,LO_Frequency,Hit,StdDev 
1615935615.1,286047001.6,N
1615935616.0,286047001.6,N
1615935635.8,286047004.0,Y
1615935655.6,286047000.2,P
1615935675.5,286047000.5,N
1615935695.3,286046999.7,N
1615935715.2,286047000.5,N
1615935735.9,286047000.1,N
1615935755.7,286047000.5,N
1615935775.6,286047000.1,N
1615935795.4,286047000.6,N
1615935815.2,286047000.2,N
1615935835.1,286046999.9,N
1615935836.0,286046999.9,N
1615935855.8,286046999.9,N
1615935875.7,286046999.9,N
1615935895.5,286047000.1,N
1615935915.3,286046999.9,N
1615935935.2,286047002.4,Y
1615935955.0,286047000.1,P
1615935955.9,286047000.1,N
1615935975.7,286047002.4,P
1615935995.6,286047002.3,N
1615936015.4,286047002.3,N
1615936035.3,286046999.7,N
1615936055.1,286047000.2,N
1615936056.0,286047000.2,N
1615936075.8,286047002.5,N
1615936095.7,286047002.2,N
1615936115.5,286047001.6,N
1615936135.3,286047002.4,N
1615936155.2,286047002.6,N
1615936175.0,286047002.6,N
1615936175.9,286047002.6,N
1615936195.8,286047002.6,N
1615936215.6,286047002.2,N
1615936235.4,286047001.9,N
1615936255.3,286047002.0,N
1615936275.1,286047002.1,N
1615936295.9,286047002.5,N
1615936315.7,286047001.5,N
1615936335.5,286047002.0,N
1615936355.4,286047001.4,N
1615936375.2,286047001.9,N
1615936395.0,286047004.3,Y
1615936396.0,286047004.3,P
1615936415.8,286047002.7,N
1615936435.6,286047002.7,N
1615936455.5,286047002.4,N
1615936475.3,286047002.6,Y
1615936495.1,286046998.8,P
1615936515.9,286046998.6,N
1615936535.7,286046998.3,N
1615936555.6,286046998.7,N
1615936575.4,286046998.3,N
1615936595.2,286046998.3,N
1615936615.1,286046998.3,N
1615936616.0,286046998.3,N
1615936635.8,286046998.7,N
1615936655.6,286046998.4,N
1615936675.5,286046998.5,N
1615936695.3,286046998.4,N
1615936715.2,286046998.6,N
1615936735.9,286047000.7,N
1615936755.7,286047001.2,N
1615936775.6,286047001.0,N
1615936795.4,286047000.9,N
1615936815.2,286047000.9,N
1615936835.3,286047000.9,N
1615936855.2,286047000.5,N
1615936905.9,286047000.3,E
1615936915.8,286047000.7,N
1615936935.7,286047001.2,P
1615936955.5,286047001.2,P
1615936975.3,286046998.2,Y
1615936995.2,286046998.9,P
1615937015.0,286046998.8,N
1615937015.9,286046998.8,N
1615937035.8,286046998.7,N
1615937055.6,286046998.4,N
1615937075.4,286046998.7,N
1615937095.3,286046998.6,N
1615937115.1,286046998.2,N
1615937135.8,286046998.1,N
1615937155.7,286047000.9,N
1615937175.5,286047000.6,N
1615937195.4,286047001.1,N
1615937215.2,286047000.6,N
1615937235.0,286047000.4,N
1615937235.9,286047000.4,N
1615937255.8,286047001.2,N
1615937275.6,286047001.2,N
1615937295.4,286047000.0,N
1615937315.3,286047001.1,N
1615937335.1,286047001.0,N
1615937355.9,286046998.2,N
1615937375.7,286047000.9,N
1615937395.5,286047000.5,N
1615937415.4,286047000.5,N
1615937435.2,286047000.0,N
1615937455.0,286047000.1,N
1615937455.9,286047000.1,N
1615937475.8,286047000.4,N
1615937495.6,286047000.5,N
1615937515.5,286046999.7,N
1615937535.3,286047002.8,N
1615937555.1,286047000.2,N
1615937575.9,286047002.3,N
1615937595.7,286046999.9,N
1615937615.5,286047002.7,N
1615937635.4,286047002.7,N
1615937655.2,286047000.1,N
1615937675.1,286047002.1,N
1615937676.0,286047002.1,N
1615937695.8,286047002.7,N
1615937715.6,286047002.0,N
1615937735.5,286047002.0,N
1615937755.3,286047002.8,N
1615937775.1,286047002.3,N
1615937795.9,286047001.9,N
1615937815.7,286047002.5,N
1615937835.6,286047002.0,N
1615937855.4,286047001.5,N
1615937875.2,286047002.0,N
1615937895.1,286047001.5,N
1615937896.0,286047001.5,N
1615937915.8,286047001.7,N
1615937935.7,286047003.8,Y
1615937955.5,286047002.6,P
1615937975.3,286047002.2,P
1615937995.2,286047001.7,P
1615938015.0,286047002.1,Y
1615938015.9,286047002.1,P
1615938035.8,286047000.7,P
1615938055.6,286047000.9,N
1615938075.4,286047000.2,N
1615938095.3,286047000.8,N
1615938115.1,286046999.8,N
1615938135.8,286047000.4,N
1615938155.7,286047000.4,N
1615938175.5,286047000.2,N
1615938195.4,286047000.7,N
1615938215.2,286047000.5,N
1615938235.0,286047000.4,N
1615938235.9,286047000.4,N
1615938255.8,286047000.5,N
1615938275.6,286047002.8,Y
1615938295.5,286047000.4,P
1615938315.3,286047000.7,P
1615938335.1,286046999.9,N
1615938355.9,286047000.0,N
1615938375.7,286047000.0,N
1615938395.5,286047000.3,N
1615938415.4,286047000.1,N
1615938435.2,286046999.8,N
1615938455.1,286046999.8,N
1615938456.0,286046999.8,N
1615938475.8,286047002.7,Y
1615938495.6,286047000.2,P
1615938515.5,286047000.0,N
1615938535.3,286047000.1,N
1615938555.1,286047002.3,Y
1615938575.9,286047002.5,P
1615938595.7,286047002.5,N
1615938615.6,286047002.6,N
1615938635.4,286047002.5,N
1615938655.2,286047002.5,N
1615938675.1,286047001.9,N
1615938676.0,286047001.9,N
1615938695.8,286047001.8,N
1615938715.6,286047002.0,N
1615938735.5,286047001.8,N
1615938755.3,286047001.5,N
1615938775.2,286047001.8,N
1615938795.9,286047001.8,N
1615938815.7,286047001.8,N
1615938835.6,286047004.4,Y
1615938855.4,286047000.0,P
1615938875.2,286046999.9,N
1615938895.1,286047000.0,N
1615938896.0,286047000.0,N
1615938915.8,286046999.9,N
1615938935.7,286047002.5,Y
1615938955.5,286047000.1,P
1615938975.3,286046999.9,N
1615938995.2,286047000.6,P
1615939015.0,286047000.0,N
1615939015.9,286047000.0,N
1615939035.8,286046999.8,N
1615939055.6,286047002.8,Y
1615939075.4,286046999.9,P
1615939095.3,286047000.2,N
1615939115.1,286047002.4,P
1615939135.8,286047002.4,N
1615939155.7,286047002.4,N
1615939175.5,286047002.1,N
1615939195.4,286047002.0,N
